This is the latest recevied weather packets stored in our database for station/object OK2ZAW-23. If no packets are shown the sender has not sent any weather packets the latest 10 day(s).
| Time | Temp. | Humidity | Pressure | Rain* | Wind** | Luminosity | Snow |
|---|---|---|---|---|---|---|---|
| 1777637039 | 16.67° C | 31% | 1024.7 hPa | - | - | 335 W/m² | - |
| 1777636411 | 16.67° C | 33% | 1024.7 hPa | - | - | 335 W/m² | - |
| 1777636097 | 16.67° C | 34% | 1024.7 hPa | - | - | 335 W/m² | - |
| 1777635783 | 16.67° C | 34% | 1024.7 hPa | - | - | 335 W/m² | - |
| 1777635469 | 16.11° C | 34% | 1024.6 hPa | - | - | 335 W/m² | - |
| 1777635156 | 16.11° C | 34% | 1024.8 hPa | - | - | 336 W/m² | - |
| 1777634528 | 16.11° C | 35% | 1024.8 hPa | - | - | 335 W/m² | - |
| 1777634214 | 16.11° C | 35% | 1024.9 hPa | - | - | 336 W/m² | - |
| 1777632645 | 15.56° C | 38% | 1025.2 hPa | - | - | 335 W/m² | - |
| 1777632018 | 15.56° C | 38% | 1025.1 hPa | - | - | 335 W/m² | - |
| 1777631077 | 15.56° C | 40% | 1025.4 hPa | - | - | 335 W/m² | - |
| 1777630763 | 15° C | 40% | 1025.3 hPa | - | - | 335 W/m² | - |
| 1777630449 | 15° C | 41% | 1025.3 hPa | - | - | 335 W/m² | - |
| 1777629194 | 14.44° C | 41% | 1025.3 hPa | - | - | 335 W/m² | - |
| 1777628567 | 14.44° C | 42% | 1025.5 hPa | - | - | 335 W/m² | - |
| 1777627940 | 14.44° C | 42% | 1025.6 hPa | - | - | 335 W/m² | - |
| 1777627626 | 13.89° C | 42% | 1025.7 hPa | - | - | 335 W/m² | - |
| 1777626999 | 14.44° C | 43% | 1025.7 hPa | - | - | 335 W/m² | - |
| 1777626686 | 13.89° C | 44% | 1025.7 hPa | - | - | 335 W/m² | - |
| 1777626372 | 13.89° C | 44% | 1025.7 hPa | - | - | 335 W/m² | - |
| 1777626058 | 13.89° C | 44% | 1025.8 hPa | - | - | 335 W/m² | - |
| 1777625745 | 13.33° C | 44% | 1025.7 hPa | - | - | 335 W/m² | - |
| 1777625432 | 13.89° C | 45% | 1025.7 hPa | - | - | 335 W/m² | - |
| 1777625118 | 13.33° C | 46% | 1025.8 hPa | - | - | 335 W/m² | - |
| 1777624491 | 13.33° C | 46% | 1025.8 hPa | - | - | 335 W/m² | - |
* Rain since midnight (hover to see other rain measurements)
** Current wind speed in m/s (hover to see current wind gust speed)